sat.trackr.live / text

‹ back to catalog

STARLINK-30828

NORAD 58671 · 2023-211E

PAYLOAD ACTIVE UNKNOWN

§ Identity

Operator
Country
US
Launch date
2023-12-29
Launch site
AFETR
Launch vehicle
Mass (kg)
RCS (m²)

Purposes: comms

External: N2YO · Heavens-Above · Gunter

§ Orbital elements

Epoch: 2026-09-20T14:30:22.114368Z

Period
94.27 min
Inclination
43.0038°
Eccentricity
0.0001400
Mean motion
15.27584188 rev/d
Perigee alt
482.1 km
Apogee alt
484.0 km
Semi-major
6,861.2 km
B*
-6.6147e-5
RAAN
64.5575°
Arg perigee
271.3601°
Mean anomaly
88.7090°
Rev number
15,227

§ Raw data

STARLINK-308281 58671U 23211E   26263.60442262 -.00002082  00000+0 -66147-4 0  99922 58671  43.0038  64.5575 0001400 271.3601  88.7090 15.27584188152272

JSON: /api/v1/satellites/58671 · /tle

For live sub-satellite position, see the globe view (requires WebGL).

§ Visibility from observer

Set your observer location to see the next 7 days of passes ≥ 10°. The values pass through the URL so the page stays shareable.

No JS? Fill the form by hand. The geolocation button needs JavaScript.